Flag for Argentina Weather past 2 weeks in Bahía Blanca, Buenos Aires, Argentina

Now
57 °F

Clear.


Feels Like: 55 °F
Forecast: 57 / 70 °F
Wind: 8 mph from North

Location: Mar Del Plata Aerodrome

Current Time: Apr 18, 2015 at 10:18:48 PM

Latest Report: Apr 18, 2015 at 10:00 PM


Visibility: 10 mi

Pressure: 29.71 "Hg

Humidity: 67%

Dew point: 46 °F

Location of Bahía BlancaLocation

Historic Weather in Bahía Blanca — Graph

°F

Bahía Blanca temperature yesterday

Maximum temperature yesterday: 68 °F (at 2:00 PM)
Minimum temperature yesterday: 50 °F (at 9:00 PM)
Average temperature yesterday: 60 °F

Past Weeks' High & Low Weather Summary

 TemperatureHumidityPressure
High140 °F (Apr 7, 2:00 AM)100% (Apr 5, 1:00 AM)30.30 "Hg (Apr 5, 1:00 AM)
Low36 °F (Apr 7, 5:00 AM)22% (Apr 7, 2:00 AM)29.62 "Hg (Apr 18, 12:00 AM)
Average61 °F71%30.02 "Hg
* Reported Apr 3 9:00 PM — Apr 18 9:00 PM, Bahía Blanca, Weather by CustomWeather, © 2015

Note: Actual official high and low records may vary slightly from our data, if they occured in-between our weather recording intervals... More about our weather records

Advertising

Bahía Blanca weather history for previous 24 hours

 ConditionsComfort  
Time TempWeatherWind HumidityBarometerVisibility
9:00 PM
Sat, Apr 18
59 °FClear.9 mph63%29.71 "Hg10 mi
8:00 PM61 °FClear.9 mph59%29.74 "Hg10 mi
6:00 PM72 °FClear.7 mph36%29.71 "Hg10 mi
5:00 PM73 °FSunny.9 mph33%29.71 "Hg10 mi
4:00 PM75 °FSunny.14 mph29%29.71 "Hg10 mi
3:00 PM72 °FSunny.14 mph36%29.74 "Hg10 mi
2:00 PM70 °FSunny.15 mph43%29.74 "Hg10 mi
1:00 PM68 °FSunny.12 mph46%29.77 "Hg10 mi
12:00 PM66 °FSunny.12 mph60%29.77 "Hg10 mi
11:00 AM64 °FPassing clouds.14 mph60%29.77 "HgN/A
10:00 AM59 °FPartly sunny.9 mph72%29.77 "Hg6 mi
9:00 AM57 °FPartly sunny.10 mph77%29.74 "Hg5 mi
8:00 AM57 °FPartly sunny.14 mph72%29.74 "HgN/A
7:00 AM55 °FPartly sunny.17 mph77%29.71 "HgN/A
6:00 AM55 °FPassing clouds.17 mph77%29.68 "HgN/A
5:00 AM55 °FPassing clouds.18 mph77%29.68 "HgN/A
4:00 AM55 °FPassing clouds.17 mph82%29.68 "HgN/A
3:00 AM55 °FPartly cloudy.17 mph88%29.65 "HgN/A
2:00 AM55 °FPassing clouds.18 mph88%29.65 "HgN/A
1:00 AM57 °FPassing clouds.21 mph82%29.62 "HgN/A
12:00 AM50 °FPassing clouds.12 mph88%29.62 "HgN/A
11:00 PM
Fri, Apr 17
52 °FPassing clouds.14 mph88%29.65 "HgN/A
10:00 PM50 °FPassing clouds.13 mph88%29.68 "HgN/A
Weather by CustomWeather, © 2015

See weather overviewHow to use our weather pages